When you browse on this site, cookies collect data to enhance your experience and personalize the content and advertising you see.
Visit our Privacy Policy to learn more. By continuing to use the site, you agree to this use of cookies and data.
  • In Latvia
  • List of Countries
  • For 7 days
  • Water Temperature
  • Satellite Maps
  • Weather Map
  • Weather Widgets
  • user-avatar
    Login

    Hourly Weather Kerewan

    Today, 19 June, Wednesday

    Time Temperature Precipitation Wind Pressure Humidity
    00:00 +27°C° 0.2 mm 3 mps 759 mmHg 68%
    01:00 +27°C° 0.2 mm 4 mps 759 mmHg 69%
    02:00 +27°C° 0.2 mm 4 mps 758 mmHg 70%
    03:00 +27°C° 0 mm 3 mps 758 mmHg 73%
    04:00 +26°C° 0 mm 3 mps 758 mmHg 75%
    05:00 +26°C° 0 mm 2 mps 758 mmHg 77%
    06:00 +27°C° 0 mm 2 mps 759 mmHg 69%
    07:00 +29°C° 0 mm 2 mps 759 mmHg 62%
    08:00 +30°C° 0 mm 2 mps 760 mmHg 54%
    09:00 +34°C° 0 mm 2 mps 760 mmHg 47%
    10:00 +37°C° 0 mm 2 mps 759 mmHg 40%
    11:00 +39°C° 0 mm 2 mps 759 mmHg 33%
    12:00 +40°C° 0 mm 3 mps 759 mmHg 30%
    13:00 +42°C° 0 mm 3 mps 758 mmHg 28%
    14:00 +43°C° 0 mm 3 mps 757 mmHg 26%
    15:00 +41°C° 0 mm 5 mps 757 mmHg 32%
    16:00 +38°C° 0 mm 6 mps 757 mmHg 39%
    17:00 +35°C° 0 mm 8 mps 757 mmHg 45%
    18:00 +33°C° 0 mm 7 mps 758 mmHg 53%
    19:00 +30°C° 0 mm 6 mps 759 mmHg 61%
    20:00 +28°C° 0 mm 6 mps 759 mmHg 68%
    21:00 +28°C° 0 mm 5 mps 759 mmHg 70%
    22:00 +28°C° 0 mm 5 mps 760 mmHg 72%
    23:00 +27°C° 0 mm 4 mps 760 mmHg 73%

    Tomorrow, 20 June, Thursday

    Time Temperature Precipitation Wind Pressure Humidity
    00:00 +27°C° 0 mm 4 mps 760 mmHg 74%
    01:00 +27°C° 0 mm 4 mps 759 mmHg 75%
    02:00 +26°C° 0 mm 4 mps 759 mmHg 76%
    03:00 +26°C° 0 mm 4 mps 759 mmHg 76%
    04:00 +26°C° 0 mm 3 mps 759 mmHg 77%
    05:00 +26°C° 0 mm 3 mps 759 mmHg 77%
    06:00 +27°C° 0 mm 4 mps 759 mmHg 70%
    07:00 +28°C° 0 mm 4 mps 759 mmHg 63%
    08:00 +29°C° 0 mm 4 mps 760 mmHg 56%
    09:00 +33°C° 0 mm 5 mps 760 mmHg 48%
    10:00 +35°C° 0 mm 5 mps 760 mmHg 40%
    11:00 +37°C° 0 mm 5 mps 760 mmHg 31%
    12:00 +37°C° 0 mm 5 mps 759 mmHg 30%
    13:00 +39°C° 0 mm 6 mps 758 mmHg 29%
    14:00 +39°C° 0 mm 6 mps 758 mmHg 28%
    15:00 +36°C° 0 mm 6 mps 757 mmHg 32%
    16:00 +35°C° 0 mm 6 mps 757 mmHg 37%
    17:00 +33°C° 0 mm 6 mps 757 mmHg 41%
    18:00 +30°C° 0 mm 6 mps 757 mmHg 52%
    19:00 +28°C° 0 mm 5 mps 758 mmHg 62%
    20:00 +26°C° 0 mm 5 mps 759 mmHg 72%
    21:00 +25°C° 0 mm 4 mps 759 mmHg 75%
    22:00 +25°C° 0 mm 4 mps 759 mmHg 78%
    23:00 +25°C° 0 mm 3 mps 759 mmHg 81%

    Day after tomorrow, 21 June, Friday

    Time Temperature Precipitation Wind Pressure Humidity
    00:00 +24°C° 0 mm 3 mps 759 mmHg 83%
    01:00 +24°C° 0 mm 3 mps 759 mmHg 86%
    02:00 +24°C° 0 mm 3 mps 759 mmHg 88%
    03:00 +24°C° 0 mm 2 mps 759 mmHg 89%
    04:00 +23°C° 0 mm 2 mps 759 mmHg 90%
    05:00 +23°C° 0 mm 2 mps 759 mmHg 91%
    06:00 +25°C° 0 mm 2 mps 759 mmHg 81%
    07:00 +26°C° 0 mm 3 mps 759 mmHg 72%
    08:00 +28°C° 0 mm 3 mps 760 mmHg 63%
    09:00 +31°C° 0 mm 3 mps 759 mmHg 53%
    10:00 +34°C° 0 mm 4 mps 759 mmHg 43%
    11:00 +37°C° 0 mm 4 mps 759 mmHg 33%
    12:00 +38°C° 0 mm 4 mps 758 mmHg 31%
    13:00 +39°C° 0 mm 5 mps 758 mmHg 30%
    14:00 +40°C° 0 mm 5 mps 757 mmHg 28%
    15:00 +38°C° 0 mm 6 mps 757 mmHg 33%
    16:00 +36°C° 0 mm 6 mps 757 mmHg 37%
    17:00 +34°C° 0 mm 6 mps 757 mmHg 42%
    18:00 +30°C° 0 mm 6 mps 757 mmHg 53%
    19:00 +28°C° 0 mm 6 mps 758 mmHg 63%
    20:00 +26°C° 0 mm 5 mps 759 mmHg 74%
    21:00 +25°C° 0 mm 4 mps 759 mmHg 77%
    22:00 +25°C° 0 mm 3 mps 759 mmHg 80%
    23:00 +24°C° 0 mm 2 mps 760 mmHg 82%

    22 June, Saturday

    Time Temperature Precipitation Wind Pressure Humidity
    00:00 +24°C° 0 mm 2 mps 760 mmHg 84%
    01:00 +24°C° 0 mm 3 mps 759 mmHg 86%
    02:00 +24°C° 0 mm 3 mps 759 mmHg 87%
    03:00 +22°C° 0 mm 3 mps 759 mmHg 88%
    04:00 +22°C° 0 mm 3 mps 759 mmHg 89%
    05:00 +23°C° 0 mm 2 mps 759 mmHg 90%
    06:00 +25°C° 0 mm 3 mps 759 mmHg 81%
    07:00 +26°C° 0 mm 3 mps 760 mmHg 72%
    08:00 +28°C° 0 mm 3 mps 760 mmHg 63%
    09:00 +30°C° 0 mm 4 mps 760 mmHg 54%
    10:00 +33°C° 0 mm 4 mps 759 mmHg 44%
    11:00 +36°C° 0 mm 4 mps 759 mmHg 35%
    12:00 +36°C° 0 mm 4 mps 759 mmHg 33%
    13:00 +37°C° 0 mm 5 mps 758 mmHg 31%
    14:00 +39°C° 0 mm 5 mps 758 mmHg 29%
    15:00 +36°C° 0 mm 5 mps 758 mmHg 35%
    16:00 +34°C° 0 mm 6 mps 758 mmHg 40%
    17:00 +33°C° 0 mm 6 mps 757 mmHg 45%
    18:00 +30°C° 0 mm 6 mps 758 mmHg 54%
    19:00 +28°C° 0 mm 6 mps 758 mmHg 63%
    20:00 +26°C° 0 mm 6 mps 759 mmHg 73%
    21:00 +25°C° 0 mm 5 mps 759 mmHg 75%
    22:00 +25°C° 0 mm 5 mps 759 mmHg 77%
    23:00 +25°C° 0 mm 4 mps 759 mmHg 78%

    23 June, Sunday

    Time Temperature Precipitation Wind Pressure Humidity
    00:00 +23°C° 0 mm 4 mps 759 mmHg 80%
    01:00 +24°C° 0 mm 3 mps 758 mmHg 82%
    02:00 +24°C° 0 mm 3 mps 758 mmHg 84%
    03:00 +24°C° 0 mm 3 mps 758 mmHg 86%
    04:00 +23°C° 0 mm 2 mps 758 mmHg 87%
    05:00 +23°C° 0 mm 2 mps 759 mmHg 89%
    06:00 +24°C° 0 mm 2 mps 759 mmHg 81%
    07:00 +25°C° 0 mm 3 mps 759 mmHg 74%
    08:00 +27°C° 0 mm 3 mps 760 mmHg 66%
    09:00 +29°C° 0 mm 3 mps 759 mmHg 55%
    10:00 +32°C° 0 mm 2 mps 759 mmHg 44%
    11:00 +35°C° 0 mm 2 mps 759 mmHg 33%
    12:00 +36°C° 0 mm 3 mps 758 mmHg 31%
    13:00 +37°C° 0 mm 4 mps 757 mmHg 30%
    14:00 +39°C° 0 mm 5 mps 757 mmHg 29%
    15:00 +36°C° 0 mm 5 mps 756 mmHg 35%
    16:00 +34°C° 0 mm 6 mps 756 mmHg 42%
    17:00 +32°C° 0 mm 6 mps 756 mmHg 49%
    18:00 +29°C° 0 mm 6 mps 757 mmHg 57%
    19:00 +27°C° 0 mm 6 mps 757 mmHg 65%
    20:00 +26°C° 0 mm 5 mps 758 mmHg 73%
    21:00 +25°C° 0 mm 5 mps 758 mmHg 75%
    22:00 +25°C° 0 mm 4 mps 759 mmHg 76%
    23:00 +25°C° 0 mm 3 mps 759 mmHg 78%

    24 June, Monday

    Time Temperature Precipitation Wind Pressure Humidity
    00:00 +25°C° 0 mm 3 mps 759 mmHg 79%
    01:00 +24°C° 0 mm 3 mps 758 mmHg 81%
    02:00 +24°C° 0 mm 3 mps 758 mmHg 82%
    03:00 +24°C° 0 mm 3 mps 758 mmHg 83%
    04:00 +24°C° 0 mm 3 mps 758 mmHg 84%
    05:00 +22°C° 0 mm 3 mps 758 mmHg 85%
    06:00 +25°C° 0 mm 3 mps 758 mmHg 76%
    07:00 +26°C° 0 mm 3 mps 758 mmHg 68%
    08:00 +27°C° 0 mm 3 mps 758 mmHg 60%
    09:00 +30°C° 0 mm 3 mps 758 mmHg 48%
    10:00 +34°C° 0 mm 2 mps 758 mmHg 37%
    11:00 +37°C° 0 mm 2 mps 758 mmHg 26%
    12:00 +38°C° 0 mm 2 mps 757 mmHg 25%
    13:00 +39°C° 0 mm 3 mps 757 mmHg 24%
    14:00 +40°C° 0 mm 3 mps 756 mmHg 23%
    15:00 +38°C° 0 mm 4 mps 756 mmHg 30%
    16:00 +36°C° 0 mm 6 mps 756 mmHg 36%
    17:00 +34°C° 0 mm 7 mps 755 mmHg 43%
    18:00 +32°C° 0 mm 6 mps 756 mmHg 50%
    19:00 +29°C° 0 mm 6 mps 756 mmHg 57%
    20:00 +27°C° 0 mm 5 mps 757 mmHg 64%
    21:00 +27°C° 0 mm 4 mps 757 mmHg 65%
    22:00 +26°C° 0 mm 4 mps 758 mmHg 66%
    23:00 +26°C° 0 mm 3 mps 758 mmHg 67%
    Show more